Location: Melbourne
(37.8170°S, 144.9670°E)
Time: 04:21:21
(UTC+10:00)

deb Explorer IX - All Passes

Search period start: 24 September 2014 00:00
Search period end: 04 October 2014 00:00
Orbit: 558 x 1216 km, 38.8° (Epoch: 21 September)

Date Brightness Start Highest point End Pass type
(mag) Time Alt. Az. Time Alt. Az. Time Alt. Az.
24 Sep - 02:01:42 10° NNE 02:04:24 13° NE 02:06:58 10° ENE visible
24 Sep - 03:46:31 10° NW 03:52:29 41° NNE 03:57:32 10° E visible
24 Sep - 05:35:00 10° WNW 05:40:50 87° NNE 05:45:42 10° E visible
24 Sep - 07:24:09 10° W 07:29:18 82° S 07:33:44 10° E daylight
24 Sep - 09:13:01 10° W 09:17:25 45° NNW 09:21:26 10° NE daylight
25 Sep - 01:57:21 10° N 02:01:37 17° NE 02:05:32 10° ENE visible
25 Sep - 03:43:31 10° NW 03:49:48 50° NNE 03:55:04 10° E visible
25 Sep - 05:32:19 10° W 05:38:15 86° S 05:43:10 10° E visible
25 Sep - 07:21:31 10° W 07:26:44 88° S 07:31:12 10° E daylight
25 Sep - 09:10:30 10° W 09:14:44 36° NNW 09:18:37 10° NE daylight
26 Sep - 01:53:33 10° NNW 01:58:50 23° NNE 02:03:33 10° E visible
26 Sep - 03:40:34 10° WNW 03:47:07 60° NNE 03:52:33 10° E visible
26 Sep - 05:29:38 10° W 05:35:39 82° S 05:40:37 10° E visible
26 Sep - 07:18:51 10° W 07:24:08 83° NNW 07:28:38 10° ENE daylight
26 Sep - 09:08:00 10° W 09:12:01 28° NNW 09:15:41 10° NNE daylight
27 Sep - 01:50:02 10° NNW 01:56:02 29° NNE 02:01:19 10° E visible
27 Sep - 03:37:41 10° WNW 03:44:25 69° NNE 03:49:59 10° E visible
27 Sep - 05:26:57 10° W 05:33:02 80° S 05:38:04 10° E visible
27 Sep - 07:16:10 10° W 07:21:30 73° NNW 07:26:02 10° ENE daylight
27 Sep - 09:05:36 10° W 09:09:14 22° NW 09:12:35 10° NNE daylight
28 Sep - 00:04:05 10° NNE 00:05:09 10° NE 00:06:13 10° NE night (unlit)
28 Sep - 01:46:41 10° NNW 01:53:13 36° NNE 01:58:56 10° E visible
28 Sep - 03:34:51 10° WNW 03:41:43 79° NNE 03:47:24 10° E visible
28 Sep - 05:24:14 10° W 05:30:25 81° S 05:35:29 10° E visible
28 Sep - 07:13:28 10° W 07:18:50 63° NNW 07:23:21 10° ENE daylight
28 Sep - 09:03:21 10° WNW 09:06:24 17° NW 09:09:14 10° N daylight
28 Sep - 23:58:25 10° N 00:02:14 15° NE 00:05:52 10° ENE night (unlit)
29 Sep - 01:43:28 10° NW 01:50:24 44° NNE 01:56:25 10° E visible
29 Sep - 03:32:02 10° WNW 03:39:00 86° NNE 03:44:47 10° E visible
29 Sep - 05:21:30 10° W 05:27:46 83° S 05:32:54 10° E visible
29 Sep - 07:10:45 10° W 07:16:06 52° NNW 07:20:36 10° NE daylight
29 Sep - 09:01:26 10° WNW 09:03:30 13° NW 09:05:29 10° NNW daylight
29 Sep - 23:54:11 10° N 23:59:18 19° NE 00:04:06 10° E night (unlit)
30 Sep - 01:40:21 10° NW 01:47:35 52° NNE 01:53:51 10° E visible
30 Sep - 03:29:15 10° W 03:36:18 88° S 03:42:09 10° E visible
30 Sep - 05:18:44 10° W 05:25:05 87° S 05:30:17 10° E visible
30 Sep - 07:08:04 10° W 07:13:19 43° NNW 07:17:46 10° NE daylight
30 Sep - 23:50:22 10° NNW 23:56:21 25° NE 00:01:56 10° E night (unlit)
01 Oct - 01:37:18 10° NW 01:44:46 61° NNE 01:51:12 10° E visible
01 Oct - 03:26:27 10° W 03:33:35 84° S 03:39:30 10° E visible
01 Oct - 05:15:57 10° W 05:22:23 86° NNW 05:27:39 10° ENE visible
01 Oct - 07:05:23 10° W 07:10:28 35° NNW 07:14:49 10° NE daylight
01 Oct - 23:46:47 10° NNW 23:53:24 31° NE 23:59:33 10° E night (unlit)
02 Oct - 01:34:19 10° WNW 01:41:56 70° NNE 01:48:31 10° ESE visible
02 Oct - 03:23:39 10° W 03:30:51 82° S 03:36:50 10° E visible
02 Oct - 05:13:09 10° W 05:19:38 78° NNW 05:24:57 10° ENE visible
02 Oct - 07:02:46 10° W 07:07:35 28° NW 07:11:44 10° NNE daylight
02 Oct - 22:00:46 10° NNE 22:02:28 11° NE 22:04:09 10° ENE night (unlit)
02 Oct - 23:43:22 10° NNW 23:50:27 37° NNE 23:57:01 10° E night (unlit)
03 Oct - 01:31:23 10° WNW 01:39:06 78° NNE 01:45:49 10° ESE visible
03 Oct - 03:20:50 10° W 03:28:06 82° S 03:34:10 10° E visible
03 Oct - 05:10:19 10° WSW 05:16:51 69° NNW 05:22:12 10° ENE visible
03 Oct - 07:00:14 10° W 07:04:37 23° NW 07:08:29 10° NNE daylight
03 Oct - 21:55:21 10° NNE 21:59:23 15° NE 22:03:22 10° ENE night (unlit)
03 Oct - 23:40:04 10° NW 23:47:29 45° NNE 23:54:23 10° E night (unlit)
